EW4052 Weather Reports


time (UTC)temp
C
wind
direction
speed
KPH
gust
KPH
rain 1hr
cm
rain 24hr
cm
rain mn
cm
humidity
%
barometer
mb
20260903081506 24 207 0.0 14.5 0.00 0.20 0.00 69 1009.6
20260903080001 23 221 0.0 12.9 0.00 0.20 0.00 69 1009.0
20260903074602 23 140 0.0 12.9 0.00 0.20 0.00 38 1009.6
20260903073052 23 219 1.6 12.9 0.00 0.20 0.00 39 1009.5
20260903071548 21 226 0.0 6.4 0.00 0.20 0.00 100 1009.2
20260903070043 21 96 0.0 0.0 0.00 0.20 0.00 100 1008.6
20260903064538 21 96 0.0 0.0 0.00 0.20 0.00 100 1008.5
20260903063034 21 96 0.0 0.0 0.00 0.20 0.00 100 1008.6
20260903061536 21 96 0.0 0.0 0.00 0.20 0.00 100 1008.6
20260903060037 21 96 0.0 0.0 0.00 0.20 0.00 100 1008.8
20260903054522 21 96 0.0 0.0 0.00 0.20 0.00 100 1008.6
20260903053028 21 96 0.0 0.0 0.00 0.20 0.00 100 1008.5
20260903051513 21 96 0.0 0.0 0.00 0.20 0.00 100 1008.6
20260903050010 22 96 0.0 0.0 0.00 0.20 0.00 100 1008.7
20260903044511 22 96 0.0 0.0 0.00 0.20 0.20 100 1008.6
20260903043015 22 96 0.0 0.0 0.00 0.20 0.20 100 1008.5
20260903041506 22 96 0.0 0.0 0.00 0.20 0.20 100 1008.6
20260903040008 23 96 0.0 0.0 0.00 0.20 0.20 100 1008.7
20260903034506 23 96 0.0 0.0 0.00 0.20 0.20 100 1008.7
20260903033005 23 96 0.0 0.0 0.00 0.20 0.20 100 1008.9
20260903031504 23 96 0.0 0.0 0.00 0.20 0.20 100 1008.8
20260903030003 23 96 0.0 0.0 0.00 0.20 0.20 100 1008.8
20260903024504 23 96 0.0 0.0 0.00 0.20 0.20 100 1008.8
20260903023002 23 96 0.0 0.0 0.00 0.20 0.20 100 1008.8
20260903021506 23 96 0.0 0.0 0.00 0.20 0.20 100 1008.6
20260903020105 24 96 0.0 0.0 0.00 0.20 0.20 100 1008.5
20260903014602 24 96 0.0 0.0 0.00 0.20 0.20 3 1008.5
20260903013050 24 96 0.0 0.0 0.00 0.20 0.20 4 1008.2
20260903011546 25 96 0.0 0.0 0.00 0.20 0.20 16 1008.1
20260903010040 25 96 0.0 0.0 0.00 0.20 0.20 30 1008.1
20260903004537 25 96 0.0 0.0 0.00 0.20 0.20 45 1008.2
20260903003032 26 96 0.0 0.0 0.00 0.20 0.20 49 1008.2
20260903001528 26 96 0.0 0.0 0.00 0.20 0.20 53 1008.2
20260903000025 27 96 0.0 0.0 0.00 0.20 0.20 59 1008.1
20260902234518 27 96 0.0 0.0 0.00 0.20 0.20 65 1008.0
20260902233014 27 101 0.0 0.0 0.00 0.20 0.20 67 1008.1
20260902231512 28 105 0.0 6.4 0.00 0.20 0.20 69 1008.1
20260902230005 28 300 0.0 0.0 0.00 0.20 0.20 68 1008.2
20260902224607 27 300 0.0 0.0 0.00 0.20 0.20 67 1008.2
20260902223056 28 300 0.0 0.0 0.00 0.20 0.20 69 1008.1
20260902221552 28 301 0.0 8.0 0.00 0.20 0.20 69 1008.1
20260902220048 28 22 0.0 4.8 0.00 0.20 0.20 68 1008.2
20260902214543 28 143 0.0 6.4 0.00 0.20 0.20 68 1008.3
20260902213037 29 254 0.0 6.4 0.00 0.20 0.20 67 1008.4
20260902211532 29 302 0.0 6.4 0.00 0.20 0.20 66 1008.5
20260902210047 29 263 0.0 1.6 0.00 0.20 0.20 66 1008.7
20260902204528 29 233 0.0 6.4 0.00 0.20 0.20 65 1008.8
20260902203019 30 305 0.0 4.8 0.00 0.20 0.20 66 1009.0
20260902201514 30 271 0.0 0.0 0.00 0.20 0.20 64 1009.1
20260902200011 29 311 0.0 4.8 0.00 0.20 0.20 65 1009.3
20260902194506 29 349 0.0 0.0 0.00 0.20 0.20 67 1009.5
20260902193001 28 186 0.0 4.8 0.00 0.20 0.20 68 1009.6
20260902191604 28 284 0.0 1.6 0.00 0.20 0.20 68 1009.6
20260902190059 27 288 0.0 0.0 0.00 0.20 0.20 68 1009.6
20260902184555 27 294 0.0 0.0 0.00 0.23 0.20 67 1009.8
20260902183051 28 294 0.0 3.2 0.00 0.23 0.20 66 1009.9
20260902181555 28 295 0.0 0.0 0.00 0.23 0.20 68 1010.3
20260902180100 27 293 0.0 4.8 0.00 0.23 0.20 69 1010.4
20260902174537 26 285 0.0 6.4 0.00 0.56 0.20 69 1010.0
20260902173034 25 319 0.0 0.0 0.00 0.56 0.20 66 1010.2
20260902171529 23 355 0.0 1.6 0.00 0.56 0.20 40 1010.6
20260902170029 21 355 4.8 9.7 0.00 0.56 0.20 100 1010.6
20260902164529 20 299 0.0 0.0 0.00 0.56 0.20 100 1011.1
20260902163027 20 216 0.0 0.0 0.00 0.56 0.20 100 1010.5
20260902161520 20 215 0.0 0.0 0.00 0.56 0.20 100 1011.8
20260902160014 20 215 0.0 0.0 0.00 0.56 0.20 100 1011.7
20260902154511 19 227 0.0 0.0 0.00 0.56 0.20 100 1011.6
20260902153007 19 227 0.0 0.0 0.00 0.56 0.20 100 1011.5
20260902151505 20 227 0.0 0.0 0.00 0.56 0.20 100 1011.4
20260902150057 19 227 0.0 0.0 0.00 0.56 0.20 100 1010.8
20260902144601 19 227 0.0 0.0 0.00 0.56 0.20 100 1010.3
20260902143052 19 227 0.0 0.0 0.00 0.56 0.20 100 1010.4
20260902141543 -17 227 0.0 0.0 0.00 0.56 0.20 1010.5
20260902140039 -17 227 0.0 0.0 0.00 0.56 0.20 1010.5
20260902134536 -17 221 0.0 0.0 0.00 0.56 0.20 1010.6
20260902133031 -17 220 0.0 0.0 0.00 0.56 0.20 1010.9
20260902131527 -17 208 0.0 0.0 0.00 0.56 0.20 1010.2
20260902130027 -17 208 0.0 0.0 0.00 0.56 0.20 1009.7
20260902124517 -17 208 0.0 0.0 0.00 0.56 0.20 1010.2
20260902123013 -17 207 0.0 0.0 0.00 0.56 0.20 1010.0
20260902121508 -17 207 0.0 0.0 0.00 0.56 0.20 1009.7
20260902120004 -17 208 0.0 0.0 0.00 0.56 0.20 1010.2
20260902114600 -17 208 1.6 17.7 0.00 0.56 0.20 1010.7
20260902113057 -17 29 0.0 24.1 0.00 0.56 0.20 1009.6
20260902111551 -17 259 0.0 0.0 0.00 0.56 0.20 1010.4
20260902110045 -17 263 0.0 0.0 0.03 0.56 0.20 1010.1
20260902104543 17 54 0.0 0.0 0.03 0.56 0.20 100 1010.2
20260902103037 17 54 0.0 0.0 0.05 0.56 0.20 100 1009.7
20260902101537 17 58 0.0 0.0 0.10 0.56 0.20 100 1010.8
20260902100033 17 49 0.0 0.0 0.08 0.53 0.18 100 1011.5
20260902094532 17 49 0.0 0.0 0.10 0.53 0.18 100 1011.3
20260902093034 18 49 0.0 0.0 0.15 0.51 0.15 100 1012.0
20260902091523 18 277 0.0 0.0 0.10 0.46 0.10 100 1012.6
20260902090014 19 311 0.0 19.3 0.10 0.46 0.10 100 1012.6
20260902084511 20 265 25.7 57.9 0.08 0.43 0.08 28 1014.6
20260902083007 21 32 0.0 16.1 0.00 0.36 0.00 37 1010.7